Regional Weather Roundup
Issued by NWS Austin/San Antonio, TX

Home | Current Version | Previous Version | Text Only | Print | Product List | Glossary On
Versions: 1 2 3 4 5 6 7 8 9 10 11 12 13 14 15 16 17 18 19 20 21 22 23 24 25 26 27 28 29 30 31 32 33 34 35 36 37 38 39 40 41 42 43 44 45 46 47 48 49 50
616
ASUS44 KEWX 200801
RWREWX
SOUTH TEXAS REGIONAL WEATHER ROUNDUP
NATIONAL WEATHER SERVICE AUSTIN/SAN ANTONIO TX
200 AM CST MON NOV 20 2017

NOTE: "FAIR" INDICATED FEW OR NO CLOUDS BELOW 12,000 FEET WITH NO
SIGNIFICANT WEATHER AND/OR OBSTRUCTIONS TO VISIBILITY.

* - THESE STATIONS ARE NOT NWS OR FAA STATIONS...AND ARE NOT SUBJECT
    TO NWS AND FAA QUALITY CONTROL.

TXZ171-172-183>190-200900-
TEXAS HILL COUNTRY AND EDWARDS PLATEAU

CITY           SKY/WX    TMP DP  RH WIND       PRES   REMARKS
JUNCTION       PTCLDY    35  29  78 W3        30.19F
*LLANO         CLOUDY    34  32  93 CALM      30.24F
BURNET         CLOUDY    40  30  67 NE3       30.22F
*HORSESHOE BAY CLOUDY    36  32  87 CALM      30.21F
*KERRVILLE     CLOUDY    38  36  89 CALM      30.20F
*FREDERICKSBRG CLOUDY    36  31  82 CALM      30.20F
*ROCKSPRINGS   NOT AVBL
*BOERNE STAGE  CLOUDY    37  32  81 CALM      30.21F
*CASTROVILLE   CLOUDY    45  35  68 NW3       30.22F
HONDO          CLOUDY    46  30  53 N5        30.20F WCI  44
*UVALDE        CLOUDY    43  32  64 NE6       30.20F WCI  40
DEL RIO        CLOUDY    46  33  60 NE5       30.17F WCI  44
LAUGHLIN AFB   PTCLDY    42  33  70 NE5       30.18R WCI  39
CARRIZO SPRGS  CLOUDY    43  36  75 CALM      30.18F
*EAGLE PASS    SUNNY     43  36  75 CALM      30.17F
$$

TXZ173-191>194-202-209-217>225-228-200900-
CENTRAL AND SOUTH CENTRAL TEXAS

CITY           SKY/WX    TMP DP  RH WIND       PRES   REMARKS
GEORGETOWN     CLOUDY    38  33  82 CALM      30.24F
AUSTIN/BERGSTM CLOUDY    38  36  92 CALM      30.21F
AUSTIN/MABRY   CLOUDY    44  34  67 N3        30.23F
*AUSTIN/EXEC   CLOUDY    45  32  61 CALM      30.23F
*LAGO VISTA    CLOUDY    47  30  52 E3        30.21F
SAN MARCOS     CLOUDY    40  34  79 NW6       30.22F WCI  36
NEW BRAUNFELS  CLOUDY    41  34  76 NW3       30.20F
RANDOLPH AFB   CLOUDY    44  36  73 N7        30.20F WCI  40
PT SAN ANTONIO CLOUDY    45  39  79 CALM      30.18F
SAN ANTONIO    CLOUDY    45  37  73 CALM      30.21F
STINSON FIELD  PTCLDY    47  36  65 CALM      30.19F
*LA GRANGE     PTCLDY    42  39  89 CALM      30.21S
*GIDDINGS      PTCLDY    40  37  89 CALM      30.22F
*GONZALES      PTCLDY    46  37  70 CALM      30.21F
$$

TXZ163>164-176>182-195>201-210>213-226-227-235-200900-
SOUTHEAST TEXAS

CITY           SKY/WX    TMP DP  RH WIND       PRES   REMARKS
COLLEGE STN    PTCLDY    47  34  60 CALM      30.22F
*BRYAN         PTCLDY    40  37  89 CALM      30.24F
*CALDWELL      PTCLDY    41  37  86 CALM      30.23F
*CROCKETT        N/A    N/A N/A N/A MISG        N/A
*BRENHAM       PTCLDY    42  39  91 CALM      30.24S
HUNTSVILLE     CLOUDY    42  37  82 CALM      30.23R
CONROE         PTCLDY    39  39 100 CALM      30.23R
HOUSTON BUSH   CLOUDY    45  40  82 N5        30.23R WCI  43
HOUSTON HOBBY  CLOUDY    49  40  71 CALM      30.21F
*HOUSTON SW AP PTCLDY    44  42  93 CALM      30.22F
PEARLAND       PTCLDY    48  43  82 CALM      30.22F
HOUSTON HOOKS  PTCLDY    44  42  93 N3        30.23S
ELLINGTON FLD  NOT AVBL
SUGAR LAND     PTCLDY    46  41  82 N5        30.21F WCI  44
*HOUSTON EXEC  PTCLDY    43  41  93 MISG      30.23F
*CLEVELAND MUN PTCLDY    39  38  95 CALM      30.24R
*WHARTON       PTCLDY    46  39  76 CALM      30.22S
*COLUMBUS      FAIR      41  39  93 CALM      30.23S
*EAGLE LAKE    MOSUNNY   44  38  80 CALM      30.21S
$$

TXZ214>216-236>238-200900-
THE UPPER TEXAS COAST

CITY           SKY/WX    TMP DP  RH WIND       PRES   REMARKS
*ORANGE        CLOUDY    44  38  81 CALM      30.22F
PORT ARTHUR    CLOUDY    47  38  71 N6        30.20F WCI  44
GALVESTON      CLOUDY    58  41  53 N12       30.21F
ANGLETON       PTCLDY    46  42  86 CALM      30.20F
*BAY CITY      PTCLDY    49  41  73 CALM      30.21S
PALACIOS       PTCLDY    47  40  76 NE7       30.21F WCI  44
$$

TXZ229>234-239>247-200900-
TEXAS COASTAL BEND AND RIO GRANDE PLAINS

CITY           SKY/WX    TMP DP  RH WIND       PRES   REMARKS
VICTORIA       PTCLDY    47  39  74 NE6       30.22S WCI  44
*BEEVILLE      PTCLDY    48  41  75 NE5       30.19F WCI  47
ROCKPORT       CLOUDY    57  44  62 N6        30.20S
*PORT ARANSAS  NOT AVBL
*PORT LAVACA   PTCLDY    51  39  63 NE3       30.21S
*INGLESIDE     NOT AVBL
CORPUS CHRISTI CLOUDY    50  34  54 NW6       30.20S WCI  48
CORPUS NAS     CLOUDY    62  41  46 N9        30.19S
*ROBSTOWN      CLOUDY    51  40  67 N3        30.20F
ALICE          CLOUDY    49  38  65 NW3       30.19F
KINGSVILLE NAS MOCLDY    48  40  73 NW3       30.20F
COTULLA        CLOUDY    50  33  52 SE3       30.20F
*FAITH RANCH   CLEAR     48  37  66 E7        30.18F WCI  45
LAREDO         CLOUDY    50  37  61 E5        30.20F WCI  48
$$

TXZ248>255-200900-
DEEP SOUTH TEXAS

CITY           SKY/WX    TMP DP  RH WIND       PRES   REMARKS
BROWNSVILLE    MOCLDY    58  47  66 N7        30.16F
PORT ISABEL    CLOUDY    57  46  66 NW8       30.16F
*SOUTH PADRE   NOT AVBL
HARLINGEN      PTCLDY    51  45  79 NW6       30.16F
*HEBBRONVILLE  CLEAR     45  38  76 CALM      30.20F
MCALLEN        CLEAR     57  45  64 NE6       30.18F
*WESLACO       CLEAR     51  44  78 CALM      30.17F
FALFURRIAS     NOT AVBL
EDINBURG       CLEAR     53  45  74 CALM      30.19F
*ZAPATA        CLEAR     49  37  61 E5        30.18F WCI  48
$$

TXZ213>215-236>238-242>244-246-247-251-254-255-200900-
CMAN STATIONS

STATION/POSITION TIME  TEMP    WIND        PRES    WAVE
                       AIR SEA DIR/SP/G            HT/PER
                 (UTC) (F)     (DEG/KT/KT) (MB)    (FT/S)
SABINE PASS      0730   51 69   40/  7/ 10 1024.3
SEA RIM ST PARK  0700   51      50/  7/  8 1023.3
NORTH JETTY/GLS  0730      64   50/ 13/ 15 1022.2
EAGLE POINT      0730   58 64   80/ 12/ 14 1023.1
MORGANS POINT    0730   56 70   70/  4/  5 1023.1
PORT O`CONNOR    0730   61 63   60/ 12/ 13 1022.1
PORT ARANSAS     0700   61 71   10/ 11/ 12 1022.0
MALAQUITE BEACH  0730   61 71  340/  6/  8 1021.9
BAFFIN BAY       0730   60 67  330/  9/  9 1022.5
PORT ISABEL      0730   60 73  300/  4/  8 1020.8
$$




USA.gov is the U.S. government's official web portal to all federal, state and local government web resources and services.